Time,TemperatureF,DewpointF,PressureIn,WindDirection,WindDirectionDegrees,WindSpeedMPH,WindSpeedGustMPH,Humidity,HourlyPrecipIn,Conditions,Clouds,dailyrainin,SoftwareType,DateUTC
2017-03-28 00:08:00,43.4,-99.9,30.36,SSW,194,0.0,0.0,0,0.02,,,0.01,weatherlink.com 1.10,2017-03-28 07:08:00,
2017-03-28 00:23:00,43.3,-99.9,30.36,SSW,193,0.0,0.0,0,0.01,,,0.01,weatherlink.com 1.10,2017-03-28 07:23:00,
2017-03-28 00:38:00,43.2,-99.9,30.36,SSW,193,0.0,0.0,0,0.01,,,0.01,weatherlink.com 1.10,2017-03-28 07:38:00,
2017-03-28 00:53:00,43.2,-99.9,30.36,SSW,194,0.0,0.0,0,0.02,,,0.02,weatherlink.com 1.10,2017-03-28 07:53:00,
2017-03-28 01:08:00,43.2,-99.9,30.36,SSE,160,0.0,3.0,0,0.01,,,0.02,weatherlink.com 1.10,2017-03-28 08:08:00,
2017-03-28 01:23:00,43.1,-99.9,30.36,South,184,0.0,2.0,0,0.01,,,0.02,weatherlink.com 1.10,2017-03-28 08:23:00,
2017-03-28 01:39:00,43.0,-99.9,30.35,South,187,0.0,1.0,0,0.01,,,0.02,weatherlink.com 1.10,2017-03-28 08:39:00,
2017-03-28 01:54:00,43.0,-99.9,30.35,South,186,3.0,3.0,0,0.00,,,0.02,weatherlink.com 1.10,2017-03-28 08:54:00,
2017-03-28 02:09:00,43.2,-99.9,30.35,South,185,1.0,3.0,0,0.00,,,0.02,weatherlink.com 1.10,2017-03-28 09:09:00,
2017-03-28 02:24:00,43.2,-99.9,30.35,SSW,209,1.0,4.0,0,0.00,,,0.02,weatherlink.com 1.10,2017-03-28 09:24:00,
2017-03-28 02:39:00,43.2,-99.9,30.34,SE,146,0.0,4.0,0,0.00,,,0.02,weatherlink.com 1.10,2017-03-28 09:39:00,
2017-03-28 02:54:00,43.2,-99.9,30.34,SSW,195,0.0,5.0,0,0.00,,,0.02,weatherlink.com 1.10,2017-03-28 09:54:00,
2017-03-28 03:09:00,43.3,-99.9,30.34,South,183,4.0,4.0,0,0.00,,,0.02,weatherlink.com 1.10,2017-03-28 10:09:00,
2017-03-28 03:24:00,43.5,-99.9,30.34,SSW,211,4.0,6.0,0,0.01,,,0.03,weatherlink.com 1.10,2017-03-28 10:24:00,
2017-03-28 03:39:00,43.6,-99.9,30.32,South,181,3.0,5.0,0,0.01,,,0.03,weatherlink.com 1.10,2017-03-28 10:39:00,
2017-03-28 03:54:00,43.7,-99.9,30.32,South,189,3.0,7.0,0,0.01,,,0.03,weatherlink.com 1.10,2017-03-28 10:54:00,
2017-03-28 04:09:00,43.8,-99.9,30.32,SSE,167,0.0,6.0,0,0.01,,,0.03,weatherlink.com 1.10,2017-03-28 11:09:00,
2017-03-28 04:24:00,43.9,-99.9,30.32,WSW,242,0.0,6.0,0,0.00,,,0.03,weatherlink.com 1.10,2017-03-28 11:24:00,
2017-03-28 04:39:00,44.0,-99.9,30.32,SSE,168,0.0,5.0,0,0.00,,,0.03,weatherlink.com 1.10,2017-03-28 11:39:00,
2017-03-28 04:55:00,44.1,-99.9,30.32,South,190,1.0,6.0,0,0.00,,,0.03,weatherlink.com 1.10,2017-03-28 11:55:00,
2017-03-28 05:10:00,44.2,-99.9,30.32,NNW,336,1.0,5.0,0,0.00,,,0.03,weatherlink.com 1.10,2017-03-28 12:10:00,
2017-03-28 05:25:00,44.2,-99.9,30.32,East,100,1.0,7.0,0,0.00,,,0.03,weatherlink.com 1.10,2017-03-28 12:25:00,
2017-03-28 05:40:00,44.3,-99.9,30.31,SSW,208,1.0,6.0,0,0.00,,,0.03,weatherlink.com 1.10,2017-03-28 12:40:00,
2017-03-28 05:55:00,44.4,-99.9,30.32,SSE,154,0.0,5.0,0,0.00,,,0.03,weatherlink.com 1.10,2017-03-28 12:55:00,